• In Deutschland
  • Länderverzeichnis
  • Für 7 Tage
  • Wassertemperatur
  • Satellitenkarten
  • Wetterkarte
  • Widgets
  • user-avatar
    Anmelden

    Stündliche Wetter Belmopan

    Heute, 17 August, Donnerstag

    Zeit Temperatur Niederschläge Wind Luftdruck Luftfeuchtigkeit
    00:00 +26°C° 0 mm 1 m/S 753 mmHg 98%
    01:00 +24°C° 0,1 mm 0 m/S 753 mmHg 98%
    02:00 +24°C° 0,1 mm 0 m/S 753 mmHg 98%
    03:00 +24°C° 0,1 mm 0 m/S 752 mmHg 99%
    04:00 +24°C° 0,1 mm 0 m/S 752 mmHg 99%
    05:00 +24°C° 0,1 mm 0 m/S 753 mmHg 98%
    06:00 +24°C° 0 mm 0 m/S 753 mmHg 98%
    07:00 +27°C° 0,5 mm 1 m/S 753 mmHg 92%
    08:00 +29°C° 0,5 mm 1 m/S 753 mmHg 86%
    09:00 +30°C° 0,5 mm 2 m/S 753 mmHg 81%
    10:00 +31°C° 0,6 mm 2 m/S 753 mmHg 78%
    11:00 +32°C° 0,6 mm 2 m/S 753 mmHg 75%
    12:00 +32°C° 0,6 mm 2 m/S 753 mmHg 72%
    13:00 +34°C° 0,5 mm 2 m/S 753 mmHg 67%
    14:00 +34°C° 0,5 mm 2 m/S 752 mmHg 62%
    15:00 +35°C° 0,5 mm 2 m/S 752 mmHg 58%
    16:00 +34°C° 0 mm 2 m/S 752 mmHg 63%
    17:00 +32°C° 0 mm 2 m/S 752 mmHg 68%
    18:00 +30°C° 0 mm 2 m/S 752 mmHg 73%
    19:00 +29°C° 0 mm 1 m/S 753 mmHg 81%
    20:00 +28°C° 0 mm 1 m/S 753 mmHg 88%
    21:00 +26°C° 0 mm 1 m/S 753 mmHg 96%
    22:00 +26°C° 0 mm 1 m/S 753 mmHg 97%
    23:00 +26°C° 0 mm 1 m/S 753 mmHg 98%

    Morgen, 18 August, Freitag

    Zeit Temperatur Niederschläge Wind Luftdruck Luftfeuchtigkeit
    00:00 +24°C° 0 mm 0 m/S 753 mmHg 98%
    01:00 +24°C° 0 mm 0 m/S 752 mmHg 98%
    02:00 +24°C° 0 mm 0 m/S 752 mmHg 98%
    03:00 +24°C° 0 mm 0 m/S 752 mmHg 98%
    04:00 +24°C° 0,1 mm 0 m/S 752 mmHg 98%
    05:00 +24°C° 0,1 mm 0 m/S 752 mmHg 98%
    06:00 +24°C° 0,1 mm 0 m/S 752 mmHg 98%
    07:00 +26°C° 0,1 mm 0 m/S 752 mmHg 91%
    08:00 +29°C° 0,1 mm 1 m/S 753 mmHg 84%
    09:00 +31°C° 0,1 mm 1 m/S 753 mmHg 77%
    10:00 +34°C° 0 mm 2 m/S 753 mmHg 66%
    11:00 +35°C° 0 mm 2 m/S 753 mmHg 55%
    12:00 +37°C° 0 mm 2 m/S 753 mmHg 44%
    13:00 +37°C° 0 mm 2 m/S 752 mmHg 42%
    14:00 +37°C° 0 mm 2 m/S 751 mmHg 41%
    15:00 +37°C° 0 mm 3 m/S 751 mmHg 39%
    16:00 +36°C° 0 mm 2 m/S 751 mmHg 49%
    17:00 +34°C° 0 mm 2 m/S 751 mmHg 58%
    18:00 +31°C° 0 mm 1 m/S 751 mmHg 68%
    19:00 +29°C° 0 mm 1 m/S 751 mmHg 77%
    20:00 +28°C° 0 mm 1 m/S 752 mmHg 86%
    21:00 +26°C° 0 mm 1 m/S 753 mmHg 96%
    22:00 +26°C° 0 mm 1 m/S 753 mmHg 97%
    23:00 +26°C° 0 mm 1 m/S 753 mmHg 98%

    übermorgen, 19 August, Samstag

    Zeit Temperatur Niederschläge Wind Luftdruck Luftfeuchtigkeit
    00:00 +23°C° 0 mm 0 m/S 752 mmHg 99%
    01:00 +23°C° 0 mm 0 m/S 752 mmHg 99%
    02:00 +23°C° 0 mm 0 m/S 752 mmHg 99%
    03:00 +23°C° 0 mm 0 m/S 751 mmHg 99%
    04:00 +23°C° 0 mm 0 m/S 751 mmHg 99%
    05:00 +23°C° 0 mm 0 m/S 752 mmHg 99%
    06:00 +23°C° 0 mm 0 m/S 752 mmHg 99%
    07:00 +25°C° 0,1 mm 0 m/S 752 mmHg 90%
    08:00 +27°C° 0,1 mm 0 m/S 752 mmHg 81%
    09:00 +30°C° 0,1 mm 0 m/S 753 mmHg 72%
    10:00 +33°C° 0 mm 1 m/S 753 mmHg 63%
    11:00 +35°C° 0 mm 1 m/S 752 mmHg 53%
    12:00 +37°C° 0 mm 2 m/S 752 mmHg 43%
    13:00 +37°C° 0 mm 2 m/S 751 mmHg 42%
    14:00 +37°C° 0 mm 2 m/S 751 mmHg 40%
    15:00 +38°C° 0 mm 2 m/S 750 mmHg 39%
    16:00 +36°C° 0 mm 2 m/S 750 mmHg 47%
    17:00 +34°C° 0 mm 2 m/S 750 mmHg 56%
    18:00 +31°C° 0 mm 2 m/S 750 mmHg 64%
    19:00 +30°C° 0 mm 1 m/S 751 mmHg 73%
    20:00 +28°C° 0 mm 1 m/S 751 mmHg 82%
    21:00 +27°C° 0 mm 1 m/S 752 mmHg 91%
    22:00 +26°C° 0,1 mm 1 m/S 752 mmHg 93%
    23:00 +26°C° 0,1 mm 1 m/S 752 mmHg 95%

    20 August, Sonntag

    Zeit Temperatur Niederschläge Wind Luftdruck Luftfeuchtigkeit
    00:00 +26°C° 0,1 mm 1 m/S 752 mmHg 98%
    01:00 +23°C° 0,4 mm 0 m/S 751 mmHg 98%
    02:00 +23°C° 0,4 mm 0 m/S 751 mmHg 98%
    03:00 +23°C° 0,4 mm 0 m/S 751 mmHg 99%
    04:00 +23°C° 0,1 mm 0 m/S 751 mmHg 99%
    05:00 +23°C° 0,1 mm 0 m/S 751 mmHg 99%
    06:00 +23°C° 0,1 mm 0 m/S 751 mmHg 99%
    07:00 +25°C° 0,1 mm 0 m/S 752 mmHg 91%
    08:00 +27°C° 0,1 mm 0 m/S 752 mmHg 83%
    09:00 +29°C° 0,1 mm 0 m/S 752 mmHg 75%
    10:00 +32°C° 0,1 mm 1 m/S 752 mmHg 69%
    11:00 +33°C° 0,1 mm 1 m/S 752 mmHg 63%
    12:00 +35°C° 0,1 mm 1 m/S 751 mmHg 57%
    13:00 +34°C° 1,4 mm 1 m/S 751 mmHg 63%
    14:00 +33°C° 1,4 mm 1 m/S 750 mmHg 70%
    15:00 +32°C° 1,4 mm 1 m/S 749 mmHg 77%
    16:00 +31°C° 1,4 mm 1 m/S 749 mmHg 82%
    17:00 +30°C° 1,4 mm 1 m/S 750 mmHg 87%
    18:00 +28°C° 1,4 mm 1 m/S 750 mmHg 92%
    19:00 +28°C° 0,2 mm 1 m/S 751 mmHg 94%
    20:00 +27°C° 0,2 mm 1 m/S 751 mmHg 95%
    21:00 +26°C° 0,2 mm 1 m/S 752 mmHg 97%
    22:00 +26°C° 0,1 mm 1 m/S 752 mmHg 98%
    23:00 +26°C° 0,1 mm 1 m/S 752 mmHg 98%

    21 August, Montag

    Zeit Temperatur Niederschläge Wind Luftdruck Luftfeuchtigkeit
    00:00 +26°C° 0,1 mm 1 m/S 752 mmHg 99%
    01:00 +26°C° 0 mm 1 m/S 751 mmHg 99%
    02:00 +24°C° 0 mm 0 m/S 751 mmHg 99%
    03:00 +24°C° 0 mm 0 m/S 751 mmHg 99%
    04:00 +24°C° 0,1 mm 0 m/S 751 mmHg 99%
    05:00 +24°C° 0,1 mm 0 m/S 752 mmHg 99%
    06:00 +24°C° 0,1 mm 0 m/S 752 mmHg 98%
    07:00 +26°C° 0,1 mm 0 m/S 752 mmHg 88%
    08:00 +28°C° 0,1 mm 0 m/S 753 mmHg 78%
    09:00 +30°C° 0,1 mm 0 m/S 753 mmHg 68%
    10:00 +33°C° 0,2 mm 1 m/S 753 mmHg 64%
    11:00 +34°C° 0,2 mm 1 m/S 752 mmHg 60%
    12:00 +36°C° 0,2 mm 2 m/S 752 mmHg 57%
    13:00 +34°C° 1,2 mm 2 m/S 751 mmHg 68%
    14:00 +31°C° 1,2 mm 2 m/S 751 mmHg 79%
    15:00 +29°C° 1,2 mm 2 m/S 750 mmHg 90%
    16:00 +28°C° 0,4 mm 1 m/S 751 mmHg 91%
    17:00 +28°C° 0,4 mm 1 m/S 751 mmHg 91%
    18:00 +27°C° 0,4 mm 1 m/S 751 mmHg 92%
    19:00 +27°C° 0,1 mm 1 m/S 751 mmHg 94%
    20:00 +27°C° 0,1 mm 1 m/S 752 mmHg 95%
    21:00 +26°C° 0,1 mm 1 m/S 752 mmHg 97%
    22:00 +24°C° 1,1 mm 0 m/S 752 mmHg 98%
    23:00 +24°C° 1,1 mm 0 m/S 752 mmHg 98%

    22 August, Dienstag

    Zeit Temperatur Niederschläge Wind Luftdruck Luftfeuchtigkeit
    00:00 +24°C° 1,1 mm 0 m/S 751 mmHg 99%
    01:00 +24°C° 0,3 mm 0 m/S 751 mmHg 99%
    02:00 +24°C° 0,3 mm 0 m/S 751 mmHg 99%
    03:00 +24°C° 0,3 mm 0 m/S 751 mmHg 99%
    04:00 +24°C° 0 mm 0 m/S 751 mmHg 99%
    05:00 +24°C° 0 mm 0 m/S 751 mmHg 99%
    06:00 +24°C° 0 mm 0 m/S 752 mmHg 99%
    07:00 +25°C° 0 mm 0 m/S 752 mmHg 96%
    08:00 +26°C° 0 mm 0 m/S 752 mmHg 92%
    09:00 +27°C° 0 mm 0 m/S 753 mmHg 88%
    10:00 +29°C° 0,1 mm 0 m/S 752 mmHg 78%
    11:00 +33°C° 0,1 mm 1 m/S 752 mmHg 67%
    12:00 +35°C° 0,1 mm 1 m/S 752 mmHg 57%
    13:00 +34°C° 0,5 mm 1 m/S 751 mmHg 62%
    14:00 +34°C° 0,5 mm 1 m/S 750 mmHg 66%
    15:00 +34°C° 0,5 mm 2 m/S 750 mmHg 71%
    16:00 +32°C° 1,2 mm 1 m/S 750 mmHg 77%
    17:00 +30°C° 1,2 mm 1 m/S 750 mmHg 83%
    18:00 +29°C° 1,2 mm 1 m/S 751 mmHg 88%
    19:00 +28°C° 0,1 mm 1 m/S 751 mmHg 91%
    20:00 +28°C° 0,1 mm 1 m/S 752 mmHg 93%
    21:00 +27°C° 0,1 mm 1 m/S 752 mmHg 96%
    22:00 +27°C° 0,5 mm 1 m/S 752 mmHg 96%
    23:00 +27°C° 0,5 mm 1 m/S 752 mmHg 96%
    Mehr zeigen